KN4RPA Weather Reports


time (UTC)temp
F
wind
direction
speed
knots
gust
knots
rain 1hr
in
rain 24hr
in
rain mn
in
humidity
%
barometer
mb
20260504050013 47 43 0.0 0.0 0.00 0.00 0.00 66 1014.6
20260504044514 47 43 0.0 0.0 0.00 0.00 0.00 65 1014.6
20260504043013 47 43 0.0 0.0 0.00 0.00 0.00 65 1014.4
20260504041511 46 43 0.0 0.0 0.00 0.00 0.00 64 1014.4
20260504040010 46 43 0.0 0.0 0.00 0.00 0.00 62 1014.3
20260504034517 46 43 0.0 0.0 0.00 0.00 0.00 60 1014.3
20260504033009 47 43 0.0 0.0 0.00 0.00 0.00 58 1014.3
20260504031509 47 43 0.0 0.0 0.00 0.00 0.00 56 1014.4
20260504030008 48 43 0.0 0.0 0.00 0.00 0.00 55 1014.5
20260504024509 48 43 0.0 0.0 0.00 0.00 0.00 53 1014.2
20260504023007 49 42 0.0 0.0 0.00 0.00 0.00 52 1014.3
20260504021506 50 43 0.0 0.0 0.00 0.00 0.00 50 1014.4
20260504020007 50 43 0.0 0.0 0.00 0.00 0.00 49 1014.1
20260504014507 51 43 0.0 0.0 0.00 0.00 0.00 48 1014.2
20260504013005 51 43 0.0 0.0 0.00 0.00 0.00 47 1014.1
20260504011504 52 43 0.0 0.0 0.00 0.00 0.00 46 1013.9
20260504010003 53 43 0.0 0.0 0.00 0.00 0.00 45 1013.9
20260504004506 55 43 0.0 0.0 0.00 0.00 0.00 41 1013.6
20260504003003 56 43 0.0 0.0 0.00 0.00 0.00 39 1013.5
20260504001502 57 42 0.0 0.0 0.00 0.00 0.00 36 1013.4
20260504000003 59 43 0.0 0.0 0.00 0.00 0.00 31 1013.4
20260503234501 60 43 0.0 0.0 0.00 0.00 0.00 28 1013.1
20260503233101 61 43 0.0 0.0 0.00 0.00 0.00 28 1013.1
20260503231559 61 43 0.0 0.0 0.00 0.00 0.00 28 1013.2
20260503224557 62 43 0.0 0.9 0.00 0.00 0.00 26 1013.2
20260503223056 62 42 0.0 5.2 0.00 0.00 0.00 25 1013.4
20260503221559 62 13 0.0 1.7 0.00 0.00 0.00 25 1013.2
20260503220055 62 52 0.0 6.1 0.00 0.00 0.00 24 1013.3
20260503214555 62 59 0.9 3.5 0.00 0.00 0.00 24 1013.3
20260503213054 62 57 0.0 5.2 0.00 0.00 0.00 24 1013.5
20260503211553 62 157 0.9 6.1 0.00 0.00 0.00 25 1013.2
20260503210053 62 73 0.0 2.6 0.00 0.00 0.00 24 1013.5
20260503204555 62 29 0.0 7.0 0.00 0.00 0.00 25 1013.4
20260503203051 61 69 0.0 5.2 0.00 0.00 0.00 26 1013.7
20260503201550 62 25 0.0 11.3 0.00 0.00 0.00 26 1013.7
20260503200049 61 322 0.0 3.5 0.00 0.00 0.00 26 1014.0
20260503194553 61 350 0.0 7.8 0.00 0.00 0.00 25 1014.3
20260503193050 61 76 0.0 2.6 0.00 0.00 0.00 25 1014.6
20260503191549 61 97 0.9 5.2 0.00 0.00 0.00 27 1014.8
20260503190045 60 28 1.7 10.4 0.00 0.00 0.00 26 1015.0
20260503184602 60 36 0.9 7.0 0.00 0.00 0.00 28 1015.3
20260503183049 60 196 0.9 4.3 0.00 0.00 0.00 26 1015.4
20260503181546 59 140 0.9 7.8 0.00 0.00 0.00 26 1015.5
20260503180041 59 43 0.9 5.2 0.00 0.00 0.00 25 1015.5
20260503174540 58 19 1.7 7.8 0.00 0.00 0.00 28 1015.6
20260503173039 58 43 0.9 3.5 0.00 0.00 0.00 26 1015.6
20260503171602 57 355 0.9 7.0 0.00 0.00 0.00 28 1015.8
20260503081525 45 336 0.0 0.9 0.00 0.00 0.00 55 1014.0
20260503071515 46 333 0.9 3.5 0.00 0.00 0.00 51 1013.4